STARLINK-32373 (60923 NORAD) Tracking and Keplerian Element Data

This shows tracking and keplerian element data for the satellite.

Feedback or suggestion? Click here.




ElementValue
Catalog60923
NameSTARLINK-32373
Epoch Orbit782
Epoch Day286.84664384
Epoch Year2024
RAAN146.1317
Inclination53.1607
Eccentricity0.0001523
Argument of Perigee95.8429
Mean Anonmoly264.2746
Mean Motion15.30207
Decay Rate2.09E-06
L11 60923U 24154W 24286.84664384 .00000209 00000+0 19202-4 0 9999
L22 60923 53.1607 146.1317 0001523 95.8429 264.2746 15.30207000 7821



Live tracking and technical data element details for STARLINK-32373 (NORAD 60923). STARLINK-32373 can be tracked NOW for your location showing map with azimuth and elevation plus other details from your city location.







IsCatalogInMostPopularTable: catalog: 60923, numindb: 8
Update: records affected: 1



GetName: 60923 STARLINK-32373

Hit Count: updated at: Wed, 04 Dec 2024 18:47:12 GMT